Showing default

KL-BETA A, 49059

Orbit data source: Space-Track

KL-BETA A, 49059 is a German payload satellite in LEO that was launched on Wed, 04 Aug 2021 UTC via a CHANG ZHENG 6 launch vehicle from the Taiyaun Space Center, China (TSC). Payload-class satellites include a variety of spacecraft equipped with specific instruments for various scientific and technological missions. These include communications satellites like Starlink; space stations such as the ISS; scientific satellites like the Hubble; Earth observation satellites from companies like Planet Labs, Umbra, and HawkEye 360; GPS; miniature CubeSats for education and research; and military/defense satellites.

Loading next visibility...
Identifier
49059, 2021-070A
Orbit
LEO
Country
Flag of DEDE / GER
Related business
Manufacturer
IMI/CAS
Mission
Operational Commercial Communications
Bus & Motor
KLA, Unknown motor
Mass
~100 kg wet, ~100 kg dry
Launch date (UTC)
2021-08-04 (5 years ago)
Launch vehicle
CHANG ZHENG 6
Launch site
Taiyaun Space Center, China (TSC)
Object type
Payload
Rocket body
Debris
Shape & HBR
Box + 1 Pan, 1.5 m
Radar Cross Section
0.900 m², Large (>1 m²)

Expand to show TLE details & history
Last TLE update: 22 hours ago

TLE from 22 hours ago
0 KL-BETA A
1 49059U 21070A   26172.52042155  .00000076  00000-0  46632-4 0  9997
2 49059  89.0040 218.1007 0003170  62.6632 297.4866 13.94394221248537
Epoch: 2026-06-21T12:29Z
TLE epoch observation values (Epoch: 2026-06-21T12:29:24.421Z)
Latitude
-0.00006°
Longitude
121.02943°
Altitude
915.222 km
Speed
7.395 km/s
True Right ascension
14h 32m 24s
True Declination
0° 00' 00"
Sunlit
Object was in full shadow at epoch
Visualization orbit readout
Latitude
Unknown
Longitude
Unknown
Altitude
Unknown
Speed
Unknown
Apparent Right ascension
Unknown
Apparent Declination
Unknown
Sunlit
N/A
Visualization observer readout
Local Sidereal Time
21:24:57
Azimuth
Unknown
Elevation
Unknown
Doppler factor
Unknown
Orbital elements
Apogee altitude
912.57 km
Perigee altitude
907.95 km
Semi-major axis
7,288.397 km
Eccentricity
0.00032
Inclination
89.004°
RAAN
218.1007°
Arg. of periapsis
62.6632°
True anomaly
297.45437°
Mean anomaly
297.4866°
Eccentric anomaly
297.47049°
Mean motion
3.48815 °/min
Orbital period
103.21 mins
BSTAR
0.000046632
Loading maneuver chart data...
Computing Atmospheric mass density...
Loading historical data...
Loading historical data...
Loading historical data...
Loading historical data...
Loading historical data...
Loading historical data...
Loading historical data...
Other satellites on launch #70 in the year 2021 (2021-08-04 UTC)

Documentation

Showing up to 5 results
|